Temp
64 64 64 64 64 64 64 64 64 64 64 64 64 64 64 64 64 68 72 77 77 70 71 79 77 77 76 72 71 69 55 54 60 61 63 69 64 68 69 66 69 71 67 71 71
63 63 63 64 64 64 64 64 64 64 64 64 64 63 63 63 69 73 74 73 71 70 77 74 73 74 68 69 68 61 54 59 68 68 65 69 67 67 66 67 67 70 75 75 69
63 63 63 63 63 64 64 64 63 63 64 63 63 63 62 62 70 75 72 72 71 71 80 79 78 74 66 68 66 63 56 66 68 70 68 66 65 69 66 62 66 67 71 70 70
62 62 62 63 63 63 64 64 63 63 63 63 63 63 62 71 61 75 71 71 70 76 77 74 72 65 62 62 69 60 67 67 67 69 64 62 66 63 66 66 72 72 73 72 71
62 62 62 62 62 63 63 63 63 63 63 63 63 62 67 69 72 75 68 70 73 74 73 72 68 66 60 65 67 61 64 68 68 67 66 67 62 61 64 70 74 75 74 71 71
61 61 61 61 62 63 63 63 63 62 62 63 63 61 66 61 77 79 74 71 76 73 72 73 70 70 65 64 61 64 63 63 65 65 67 63 62 60 66 69 71 72 70 70 71
61 61 61 61 61 62 62 62 62 62 62 63 63 65 67 68 77 76 75 72 74 74 70 73 73 65 66 61 64 64 55 60 64 65 63 63 55 58 67 69 68 69 69 70 71
61 61 61 61 61 61 61 62 61 62 62 63 63 67 63 71 74 74 75 72 73 74 71 71 71 66 62 66 62 57 55 48 62 63 58 60 48 63 68 65 65 67 69 69 70
60 60 60 60 60 60 61 61 61 62 63 62 64 66 64 69 70 71 73 70 71 70 70 74 67 61 61 53 49 52 45 50 56 65 59 55 50 62 67 65 64 67 66 67 68
60 60 60 60 60 61 61 61 62 61 63 69 71 60 67 66 66 69 70 71 67 65 64 62 59 53 53 50 41 46 49 52 51 59 60 55 53 60 64 64 65 63 64 65 61
60 60 61 60 61 61 63 66 62 60 64 64 65 65 68 67 69 65 67 67 66 61 53 57 50 46 53 56 57 52 49 48 54 61 56 55 55 58 63 63 63 64 62 60 59
60 60 60 60 61 61 62 65 60 60 54 67 67 67 68 67 61 63 67 60 58 52 57 50 45 56 59 57 54 52 47 47 54 59 54 52 51 58 62 61 61 59 59 58 56
60 60 60 60 60 61 66 62 66 65 53 61 63 62 63 64 60 60 64 61 55 52 53 49 55 60 56 53 51 51 48 48 46 51 53 48 45 51 59 59 59 58 55 54 52
60 60 61 60 58 67 64 65 66 64 48 54 56 59 62 62 55 62 63 59 56 51 52 52 55 53 50 50 52 45 54 49 48 42 37 47 32 46 56 51 53 52 49 48 49
59 59 60 58 64 64 63 66 64 58 34 57 55 65 61 57 56 55 61 57 52 53 49 49 49 48 48 51 53 49 49 47 46 41 38 41 35 44 53 47 47 47 47 47 47
57 58 58 61 65 65 67 64 59 46 35 51 56 54 54 56 55 56 56 58 56 51 52 51 53 51 52 55 52 53 46 47 45 41 30 40 39 41 46 48 44 46 47 47 47
57 57 57 64 60 66 65 59 44 37 56 50 50 54 53 51 52 52 51 47 47 41 42 48 49 52 54 46 49 46 41 31 29 27 28 42 36 43 49 51 48 45 45 45 46
56 57 57 64 63 63 59 49 35 48 51 55 53 53 49 54 52 51 48 46 53 50 44 40 38 47 49 47 43 42 43 31 22 25 28 37 30 42 49 48 48 47 45 46 45
56 56 56 61 64 60 52 39 42 49 54 53 53 47 48 52 52 50 48 49 50 49 42 41 41 47 49 48 47 41 38 43 33 32 29 33 42 43 45 44 44 44 43 42 43
51 52 53 60 62 56 46 42 49 55 54 54 45 51 45 49 46 47 46 48 46 50 52 44 35 46 46 45 45 43 45 35 34 23 16 30 32 39 41 42 43 41 40 42 43
49 45 52 60 59 49 38 43 49 56 55 49 47 46 47 45 47 45 45 47 51 47 49 46 39 39 42 40 41 40 38 39 38 32 25 25 31 42 40 42 40 39 41 42 42
48 41 53 56 43 45 40 47 49 50 53 50 49 46 44 46 44 44 44 48 52 49 42 46 40 30 36 46 47 43 41 41 33 29 31 33 33 42 40 40 41 41 43 41 42
44 45 51 51 36 38 45 47 49 47 48 48 46 48 49 45 39 44 45 48 50 47 42 42 33 26 28 37 39 35 37 39 37 32 28 26 29 44 40 40 40 40 40 40 40
44 36 42 44 46 43 42 43 42 49 48 50 47 48 45 42 45 40 42 43 44 43 44 45 35 28 22 31 37 29 33 35 30 27 27 28 31 40 43 41 41 37 38 38 39
42 39 43 34 37 40 43 44 41 40 46 47 43 43 42 36 39 39 42 42 42 41 41 41 27 30 33 35 32 29 29 32 29 31 24 29 31 37 40 37 34 36 37 37 37
37 36 39 37 42 39 40 38 40 42 42 40 39 43 43 36 37 25 31 34 33 36 37 35 19 25 17 30 31 27 31 32 32 33 33 33 32 43 36 36 35 36 37 36 36
40 41 38 39 36 37 37 38 39 43 43 43 41 37 36 38 39 38 38 37 36 32 31 29 22 13 9 27 23 14 26 30 32 35 34 27 32 26 29 32 33 34 35 35 36
MSLP
1018.82 1018.74 1018.59 1018.44 1018.29 1018.12 1017.93 1017.72 1017.53 1017.40 1017.18 1016.96 1016.73 1016.43 1016.17 1015.87 1015.33 1015.30 1014.18 1013.30 1013.10 1013.37 1013.69 1013.63 1013.60 1013.43 1013.35 1013.19 1013.43 1013.37 1013.21 1012.22 1011.37 1010.68 1010.34 1010.16 1010.29 1010.31 1010.33 1010.46 1010.25 1010.19 1010.24 1010.29 1010.67
1018.91 1018.75 1018.59 1018.47 1018.31 1018.12 1017.95 1017.78 1017.56 1017.34 1017.15 1016.92 1016.67 1016.38 1016.12 1015.86 1015.19 1014.05 1013.19 1012.92 1013.14 1013.46 1013.70 1013.53 1013.37 1013.32 1013.31 1013.07 1013.38 1013.55 1013.11 1012.19 1011.18 1010.95 1010.83 1010.67 1010.66 1010.76 1010.82 1010.64 1010.45 1010.07 1009.57 1009.55 1010.40
1018.83 1018.71 1018.62 1018.47 1018.29 1018.12 1017.93 1017.70 1017.48 1017.24 1017.04 1016.88 1016.61 1016.28 1016.03 1015.89 1014.93 1013.37 1013.16 1013.07 1013.20 1013.36 1013.19 1013.13 1012.94 1013.12 1013.27 1012.85 1013.05 1013.01 1012.87 1012.17 1011.70 1011.49 1011.39 1011.49 1011.43 1011.21 1011.07 1010.85 1010.64 1010.37 1010.03 1009.90 1010.39
1018.79 1018.73 1018.61 1018.48 1018.29 1018.06 1017.79 1017.55 1017.23 1017.05 1016.84 1016.68 1016.55 1016.22 1015.94 1015.52 1014.62 1013.26 1013.13 1013.22 1013.45 1013.51 1013.43 1013.17 1013.23 1013.28 1013.19 1013.04 1012.84 1012.70 1012.55 1012.51 1012.16 1011.75 1011.77 1011.88 1011.78 1011.73 1011.39 1010.68 1010.09 1009.89 1009.78 1009.75 1009.82
1018.71 1018.68 1018.53 1018.42 1018.23 1017.98 1017.69 1017.37 1017.03 1016.70 1016.51 1016.34 1016.30 1016.24 1015.92 1015.19 1013.62 1013.24 1013.27 1013.40 1013.58 1013.72 1013.50 1013.28 1013.22 1013.25 1013.16 1012.72 1012.63 1012.54 1012.51 1012.57 1012.20 1011.97 1011.88 1011.87 1011.95 1012.38 1010.82 1010.49 1009.84 1009.61 1009.23 1009.20 1009.35
1018.52 1018.53 1018.46 1018.29 1018.09 1017.86 1017.58 1017.28 1016.92 1016.49 1016.20 1016.10 1016.04 1016.21 1015.98 1014.65 1013.04 1013.12 1013.33 1013.66 1013.44 1013.67 1013.45 1013.34 1013.07 1013.11 1013.02 1012.91 1013.10 1012.70 1012.73 1012.70 1012.45 1012.21 1011.69 1011.79 1011.79 1012.16 1010.30 1009.88 1009.55 1009.17 1008.98 1008.90 1008.83
1018.31 1018.26 1018.20 1018.09 1017.93 1017.71 1017.37 1017.02 1016.62 1016.23 1015.92 1015.80 1015.91 1015.91 1014.99 1013.75 1013.07 1013.30 1013.45 1013.48 1013.49 1013.49 1013.50 1013.19 1013.22 1013.51 1013.20 1013.11 1013.24 1013.23 1013.35 1012.79 1011.93 1011.28 1011.06 1010.97 1011.93 1011.41 1010.17 1009.97 1009.55 1009.15 1008.70 1008.58 1008.70
1018.12 1018.08 1018.02 1017.90 1017.75 1017.56 1017.19 1016.71 1016.29 1015.98 1015.79 1015.68 1015.76 1015.58 1014.40 1013.47 1013.24 1013.42 1013.47 1013.58 1013.69 1013.61 1013.72 1013.65 1013.69 1013.96 1013.76 1013.39 1013.43 1013.54 1013.40 1012.70 1011.39 1010.97 1011.58 1011.41 1011.48 1010.97 1010.05 1009.95 1009.98 1009.33 1008.97 1008.98 1008.75
1018.00 1017.97 1017.84 1017.67 1017.47 1017.25 1016.90 1016.48 1016.17 1016.03 1015.83 1015.78 1015.84 1015.20 1013.97 1013.73 1013.55 1013.60 1013.46 1013.40 1013.65 1013.88 1013.97 1014.01 1014.07 1014.01 1013.84 1014.10 1014.19 1013.54 1013.06 1012.30 1011.62 1010.74 1011.38 1011.69 1011.20 1010.72 1010.21 1010.01 1009.88 1008.98 1009.23 1009.19 1008.82
1017.77 1017.76 1017.72 1017.54 1017.22 1016.78 1016.34 1016.04 1015.92 1016.08 1015.91 1015.36 1014.97 1015.08 1013.87 1013.59 1013.76 1013.86 1013.77 1013.57 1013.66 1013.96 1014.22 1014.34 1014.41 1014.22 1014.16 1014.32 1013.98 1013.40 1013.07 1012.64 1012.19 1011.61 1011.43 1011.50 1011.13 1010.68 1010.24 1009.84 1008.89 1009.48 1009.43 1009.63 1010.65
1017.47 1017.55 1017.49 1017.36 1017.07 1016.67 1016.13 1015.80 1016.36 1016.18 1015.32 1014.28 1014.09 1013.47 1013.19 1013.80 1013.88 1013.92 1013.96 1013.90 1013.75 1014.06 1014.17 1014.20 1014.43 1014.09 1013.83 1013.72 1013.54 1013.48 1013.51 1013.13 1012.65 1012.12 1011.87 1011.66 1010.99 1010.66 1010.03 1009.59 1009.42 1009.67 1009.77 1010.90 1011.96
1017.06 1017.15 1017.18 1017.12 1016.90 1016.58 1016.34 1015.74 1016.53 1016.76 1015.53 1013.68 1013.02 1013.12 1013.33 1013.82 1013.94 1014.09 1014.14 1014.09 1013.98 1013.95 1013.88 1014.65 1014.27 1013.54 1013.49 1013.50 1013.69 1013.66 1013.68 1013.46 1012.78 1012.26 1012.50 1012.02 1011.60 1010.75 1009.30 1009.33 1009.78 1010.17 1010.97 1012.17 1013.12
1016.80 1016.84 1016.89 1016.85 1016.75 1016.58 1016.01 1016.42 1016.39 1016.42 1016.03 1013.53 1013.33 1013.34 1013.60 1013.99 1013.78 1013.85 1014.17 1013.72 1013.77 1013.94 1013.80 1013.70 1013.32 1013.17 1013.59 1013.78 1013.72 1013.66 1013.49 1013.37 1013.45 1013.25 1012.94 1012.49 1011.52 1010.42 1009.40 1009.82 1010.70 1011.75 1013.15 1013.90 1015.00
1016.51 1016.57 1016.62 1016.79 1017.06 1015.86 1016.10 1016.49 1016.50 1016.59 1015.92 1013.95 1013.73 1013.67 1013.73 1013.79 1013.98 1014.19 1014.10 1014.07 1013.70 1013.62 1013.50 1013.29 1013.51 1013.54 1013.52 1013.51 1013.64 1013.78 1013.53 1013.78 1014.04 1014.04 1013.77 1013.36 1012.23 1011.18 1010.23 1011.78 1012.42 1013.67 1014.46 1015.62 1016.26
1015.95 1016.21 1016.45 1016.76 1016.23 1015.83 1016.29 1016.37 1016.57 1016.75 1015.43 1013.49 1013.65 1013.83 1013.54 1013.84 1014.08 1014.29 1014.30 1014.07 1013.71 1013.66 1014.04 1013.28 1013.44 1013.48 1013.40 1013.16 1013.23 1013.38 1013.43 1013.92 1014.27 1014.72 1014.60 1013.91 1013.42 1011.01 1010.63 1012.51 1013.81 1015.03 1016.03 1016.72 1017.35
1015.72 1015.98 1016.26 1016.40 1016.00 1015.94 1016.02 1016.34 1016.72 1016.54 1013.97 1013.18 1013.24 1013.47 1013.52 1013.48 1013.72 1014.10 1014.32 1014.26 1013.85 1013.74 1013.59 1013.41 1013.69 1013.50 1012.90 1012.83 1013.24 1013.61 1014.17 1014.34 1014.51 1014.99 1014.99 1013.84 1013.26 1011.87 1011.59 1012.73 1014.40 1015.64 1016.73 1017.58 1018.07
1015.64 1015.81 1016.20 1015.77 1015.69 1015.70 1015.82 1016.21 1016.46 1014.87 1012.83 1012.85 1012.81 1012.88 1012.98 1013.26 1013.45 1013.69 1013.80 1014.04 1013.94 1013.81 1013.59 1013.30 1013.25 1013.01 1012.95 1013.20 1013.44 1014.20 1015.12 1015.17 1015.44 1015.50 1014.90 1013.83 1013.49 1012.06 1012.01 1012.31 1013.54 1015.50 1017.00 1017.99 1018.67
1015.58 1015.68 1015.98 1015.64 1015.84 1015.82 1015.94 1016.20 1014.93 1013.30 1012.04 1012.34 1012.60 1012.73 1012.45 1012.61 1012.95 1013.27 1013.39 1013.19 1012.79 1013.05 1013.39 1013.59 1013.12 1013.12 1013.58 1013.58 1013.90 1014.43 1014.86 1015.63 1016.45 1016.52 1015.72 1014.47 1013.51 1012.16 1012.09 1013.27 1014.48 1016.07 1017.47 1018.28 1019.01
1015.51 1015.71 1015.97 1015.80 1015.75 1015.93 1015.99 1015.38 1013.57 1012.68 1012.11 1011.95 1012.59 1012.62 1012.25 1012.00 1012.58 1012.78 1012.93 1012.84 1012.77 1013.07 1013.61 1013.50 1013.40 1013.36 1013.56 1013.98 1014.42 1014.68 1015.06 1015.68 1016.52 1017.61 1017.28 1015.54 1013.80 1013.28 1013.84 1015.01 1015.94 1017.12 1018.04 1018.95 1019.46
1015.82 1016.19 1016.09 1015.95 1016.04 1015.83 1015.86 1014.62 1013.36 1012.26 1012.43 1012.35 1012.29 1012.12 1012.07 1011.98 1012.67 1012.78 1012.80 1012.86 1013.38 1013.72 1013.93 1014.58 1014.92 1014.45 1014.60 1014.72 1014.90 1015.23 1015.68 1016.16 1017.22 1017.81 1017.03 1015.28 1014.69 1014.26 1014.99 1015.69 1016.90 1018.12 1018.84 1019.31 1019.67
1015.75 1016.37 1016.28 1015.87 1016.17 1016.29 1015.45 1014.43 1013.65 1012.78 1012.83 1012.89 1012.60 1012.51 1012.34 1012.55 1012.74 1013.09 1012.82 1013.12 1013.40 1014.42 1014.80 1015.32 1016.06 1015.72 1015.48 1015.27 1015.32 1016.14 1016.24 1016.65 1017.31 1017.64 1017.08 1016.41 1015.36 1015.15 1015.80 1016.35 1017.58 1018.63 1019.31 1019.74 1019.88
1015.84 1016.48 1016.28 1016.14 1016.71 1016.31 1015.39 1014.30 1014.00 1013.31 1013.11 1013.12 1013.24 1013.14 1012.98 1013.16 1013.30 1013.44 1013.38 1013.77 1013.93 1014.68 1015.56 1015.99 1016.73 1016.89 1016.23 1015.75 1015.71 1016.06 1016.48 1017.01 1017.77 1017.64 1017.25 1016.76 1015.65 1015.83 1016.50 1017.39 1017.98 1018.85 1019.24 1019.59 1019.73
1015.80 1016.06 1016.35 1016.45 1015.86 1015.25 1014.84 1014.24 1013.82 1013.83 1013.58 1013.50 1013.52 1013.52 1013.66 1014.09 1014.12 1013.87 1014.17 1014.70 1015.06 1015.70 1016.43 1017.12 1017.81 1018.27 1017.54 1016.81 1017.12 1017.52 1017.84 1018.12 1018.67 1018.85 1018.12 1017.68 1016.12 1016.00 1016.78 1017.38 1017.87 1018.26 1018.80 1019.29 1019.96
1016.07 1016.30 1016.60 1016.54 1015.35 1015.04 1014.97 1014.05 1013.78 1013.84 1013.76 1013.46 1013.70 1014.00 1014.25 1014.62 1014.74 1014.76 1015.04 1015.71 1016.16 1016.97 1017.54 1018.09 1018.92 1019.44 1019.34 1018.31 1018.44 1018.98 1018.64 1018.63 1019.39 1019.44 1018.46 1017.79 1016.98 1016.11 1016.41 1017.19 1017.44 1017.99 1018.37 1019.13 1019.56
1015.56 1015.42 1014.96 1015.61 1015.05 1015.10 1015.03 1014.06 1013.64 1013.87 1013.97 1013.99 1014.08 1014.52 1015.21 1015.48 1015.83 1015.78 1016.30 1016.62 1017.37 1017.98 1018.54 1019.45 1020.31 1020.89 1020.58 1020.43 1020.04 1020.05 1019.58 1018.69 1019.35 1019.11 1019.28 1017.78 1017.78 1016.72 1016.92 1017.27 1017.82 1018.27 1018.69 1019.01 1019.08
1016.01 1015.89 1015.64 1015.43 1014.81 1014.95 1015.10 1014.31 1014.04 1013.92 1014.11 1014.33 1014.84 1015.17 1015.59 1016.08 1016.68 1017.57 1017.82 1018.15 1018.42 1019.04 1019.65 1020.75 1021.42 1021.94 1022.06 1021.99 1021.37 1020.65 1019.11 1019.07 1018.95 1018.75 1018.47 1018.38 1017.67 1017.47 1017.69 1017.72 1017.88 1018.25 1018.55 1018.91 1019.10
1016.18 1016.17 1015.52 1015.20 1015.07 1014.51 1014.17 1014.11 1013.97 1014.04 1014.74 1015.10 1015.55 1016.12 1016.68 1017.61 1018.15 1018.74 1019.25 1019.60 1019.80 1020.10 1020.76 1021.55 1022.54 1023.65 1023.50 1022.82 1022.32 1021.23 1018.64 1018.57 1018.36 1018.32 1018.36 1018.54 1018.32 1018.68 1018.39 1018.41 1018.55 1018.77 1018.97 1019.18 1019.41
Wind_Speed
6 7 7 7 7 7 7 8 8 9 8 9 10 10 10 11 14 5 6 0 3 12 3 6 5 5 4 3 1 2 3 4 7 5 4 6 2 2 0 4 6 6 4 5 9
5 6 6 7 8 8 9 10 10 10 10 10 11 13 12 12 5 8 2 7 9 9 5 6 6 5 4 4 3 2 3 5 6 8 7 10 8 7 7 8 9 8 10 9 10
4 5 6 7 7 8 9 9 10 10 11 11 11 12 13 11 5 3 1 6 9 9 6 7 7 4 7 5 5 5 5 7 9 10 7 7 9 8 9 9 9 11 12 5 6
5 6 6 7 8 9 9 10 10 10 11 11 10 11 12 5 5 3 2 5 7 8 7 3 5 4 5 7 8 7 8 8 9 7 1 5 8 11 11 12 11 12 10 9 10
5 6 6 7 9 10 11 12 12 12 11 11 9 8 6 4 4 4 5 6 6 4 7 7 7 6 7 6 7 7 10 9 9 8 7 7 9 9 21 16 15 14 13 10 9
6 6 7 8 9 10 11 13 14 13 12 10 6 3 4 6 3 6 6 5 5 7 7 7 5 3 7 6 8 8 8 9 9 14 14 11 8 4 15 10 13 10 10 9 10
6 6 7 8 10 11 12 14 15 14 9 7 4 4 4 7 3 5 5 1 2 5 7 5 4 1 6 6 6 7 6 10 13 11 8 5 4 11 17 10 9 9 10 9 8
6 6 7 8 10 12 13 14 15 9 7 3 6 5 6 2 3 2 3 4 2 4 3 6 4 5 4 6 6 7 7 5 7 8 3 8 6 12 9 8 11 15 13 9 10
7 6 7 7 9 11 13 14 7 4 2 5 4 4 3 1 3 3 4 2 4 1 3 0 2 4 5 4 5 7 6 10 10 9 6 6 6 7 10 11 12 17 11 10 9
7 7 8 8 9 11 14 9 4 3 5 5 4 2 4 2 4 1 1 2 3 6 4 4 4 3 3 4 5 7 10 11 12 8 11 11 11 9 8 10 19 9 9 8 18
7 7 8 9 11 12 9 2 3 2 5 6 4 9 5 4 3 3 1 3 4 4 4 5 4 6 10 11 11 4 8 12 11 10 12 13 11 12 12 13 18 14 8 15 17
8 7 7 8 11 12 5 2 3 1 7 9 15 9 2 2 2 6 2 5 4 6 8 3 7 12 7 7 8 8 10 12 8 7 8 10 14 18 21 14 7 7 14 15 16
9 7 5 6 9 7 3 3 1 1 5 3 3 1 3 1 3 5 4 3 5 7 8 10 7 10 8 8 10 11 9 9 7 7 9 8 8 9 8 9 17 19 16 18 16
10 8 7 4 3 3 2 4 2 2 4 7 4 3 4 3 3 1 2 2 3 5 4 7 3 1 4 7 6 8 7 3 6 5 3 8 7 5 15 14 15 13 14 12 12
11 8 5 4 5 2 5 4 3 2 5 4 4 2 3 3 3 3 1 3 6 6 3 2 7 6 6 6 2 6 2 3 6 6 5 8 4 6 7 11 10 10 10 9 8
9 6 6 4 3 4 4 5 3 3 8 4 5 5 4 5 4 4 3 3 3 2 5 10 2 3 6 6 2 5 3 8 8 4 2 1 1 5 3 11 7 9 8 8 7
9 7 3 4 2 4 4 3 3 6 3 5 3 5 5 5 6 6 5 4 4 3 6 5 8 5 4 2 4 3 4 5 2 1 6 7 3 5 5 5 15 14 10 8 8
6 5 2 2 3 4 3 3 9 4 9 3 2 4 5 8 6 8 4 8 10 11 1 4 4 1 2 2 2 6 2 4 5 3 3 7 5 6 6 11 13 12 10 8 7
5 2 1 3 2 2 2 7 6 9 3 5 5 5 8 10 6 3 7 10 2 1 4 3 5 4 4 3 1 2 3 1 3 1 2 6 6 2 9 9 10 10 9 8 7
2 1 3 1 4 2 3 6 6 2 2 4 8 7 6 4 6 7 6 4 3 5 4 3 4 2 3 2 1 1 1 3 2 4 5 6 4 8 5 11 9 8 8 7 7
4 1 1 4 3 1 6 6 11 10 5 6 7 11 7 5 5 5 3 4 5 4 4 5 0 2 0 5 4 0 2 2 1 4 5 9 7 8 9 8 11 7 5 4 4
4 3 3 3 4 4 9 4 4 5 4 5 4 5 7 5 6 9 9 6 7 6 6 5 3 5 9 7 8 5 8 8 7 7 4 11 15 11 11 8 8 4 4 6 4
3 3 2 0 6 11 6 8 7 5 9 5 7 8 3 6 4 7 7 8 7 4 1 3 2 2 8 3 6 5 1 1 4 1 6 9 4 6 11 10 9 11 6 5 4
3 4 3 3 6 5 13 13 12 6 10 9 3 4 4 6 6 3 2 3 4 5 6 3 2 6 7 8 9 5 8 8 3 6 8 15 18 22 17 9 5 5 8 6 6
2 3 3 6 10 12 6 5 16 11 6 3 4 10 8 5 8 12 9 5 8 7 4 1 5 4 11 11 8 5 11 18 13 16 13 24 22 23 17 8 5 5 5 2 1
2 3 1 3 10 15 15 8 12 6 9 8 9 4 11 11 5 2 4 2 2 4 3 2 4 4 7 5 10 14 22 17 19 19 20 20 24 15 4 4 3 3 4 1 1
2 2 1 5 4 11 14 15 7 6 3 2 1 2 4 4 9 7 4 5 2 3 5 6 5 2 7 1 4 8 17 19 18 19 19 19 15 1 2 3 5 5 3 4 5
Wind_Direction
31 22 16 13 8 2 357 355 354 349 343 339 335 329 326 325 303 215 256 82 146 162 246 154 216 218 246 238 281 300 294 271 279 319 285 112 159 106 57 288 290 193 221 187 153
8 4 1 354 348 345 342 339 340 336 332 332 330 325 325 333 279 254 93 125 133 152 203 186 197 190 246 200 174 229 238 266 324 339 333 332 344 328 326 289 289 292 248 204 159
333 335 335 332 331 331 329 326 322 322 324 323 322 319 321 319 276 84 31 149 161 183 261 230 285 192 243 259 199 206 221 280 315 332 28 335 310 297 279 277 256 272 314 321 194
301 310 316 317 320 320 320 318 316 315 315 313 314 313 323 269 301 105 188 155 176 202 256 224 241 211 229 244 213 259 253 268 284 281 331 277 310 304 280 256 267 278 273 282 281
287 295 303 309 314 316 317 318 318 313 307 306 305 311 297 228 261 96 120 139 164 218 228 220 233 225 252 265 307 262 258 261 285 298 272 274 269 272 282 277 276 272 272 263 266
281 292 301 304 304 311 317 318 315 309 306 302 287 289 247 237 102 109 111 151 190 218 219 240 254 345 290 279 263 309 338 307 280 270 264 255 261 299 278 277 273 271 275 281 265
269 277 290 301 310 317 320 320 316 309 297 288 238 221 249 250 47 107 160 177 276 243 253 247 322 323 329 314 9 336 318 287 271 263 243 142 309 238 252 285 313 284 274 277 296
263 278 297 312 318 321 318 316 314 307 322 295 180 216 262 323 30 177 158 140 229 249 317 21 2 298 267 307 311 273 255 281 272 262 122 110 257 285 319 351 322 295 284 297 295
260 275 291 306 313 313 310 310 297 323 43 132 194 255 265 195 159 30 307 257 120 65 27 44 217 227 287 234 289 229 253 265 284 275 139 167 235 262 285 282 274 272 286 275 270
253 270 290 301 305 305 309 285 205 279 231 238 266 286 193 117 113 88 354 196 156 144 158 198 220 227 234 221 235 279 296 311 305 314 313 296 266 256 286 299 275 296 295 311 68
251 272 287 300 301 303 325 235 224 191 218 273 296 286 322 88 160 124 297 171 177 220 208 195 208 208 230 239 259 319 314 302 300 303 288 280 305 314 283 268 294 294 265 90 75
237 255 285 298 300 299 287 352 62 68 303 261 258 259 12 63 287 146 224 194 193 214 210 134 227 239 280 329 308 292 289 286 276 300 349 321 301 283 282 268 288 43 53 77 67
229 239 258 284 316 297 12 62 24 309 252 289 52 308 63 220 262 109 220 193 198 230 236 213 258 332 302 293 274 270 264 293 322 340 290 302 275 259 285 67 75 70 69 61 56
218 214 220 298 313 109 129 122 93 23 270 188 169 136 161 259 185 98 283 289 211 245 252 253 101 173 258 259 258 291 279 355 308 343 255 41 282 332 274 89 76 70 64 58 61
193 200 223 212 329 225 116 126 117 207 289 120 138 108 118 252 128 131 53 190 241 184 214 213 165 184 222 230 200 232 88 250 240 231 300 249 256 246 197 121 104 87 79 75 66
156 178 181 222 235 103 133 129 229 216 240 134 128 168 185 181 164 126 223 208 12 315 225 258 52 231 215 225 236 5 299 261 251 216 266 49 307 322 59 145 118 109 94 88 74
151 151 172 315 132 144 152 206 218 234 150 155 168 169 231 166 167 192 171 191 218 219 213 192 206 237 206 239 128 112 300 308 296 126 208 63 13 234 115 129 149 131 115 93 75
124 129 197 314 134 143 172 189 213 233 244 92 132 184 217 151 222 188 238 236 225 238 227 239 318 102 112 245 31 183 262 166 265 311 302 8 255 247 128 84 91 101 105 98 81
91 76 107 202 179 188 166 219 205 207 313 218 172 244 213 219 202 244 249 265 207 134 195 278 217 166 151 71 15 102 207 13 89 31 221 231 280 10 101 104 111 111 92 82 78
92 36 146 57 220 203 211 230 237 306 49 320 214 234 264 236 180 189 208 96 88 41 23 36 297 24 72 115 259 209 354 41 53 236 243 253 280 263 176 151 117 92 84 78 76
92 142 92 159 251 263 229 227 242 253 158 218 236 255 274 283 283 273 242 117 138 127 37 103 163 250 261 178 193 252 232 193 149 213 250 273 263 69 53 93 97 88 91 120 139
156 179 162 213 151 200 226 214 280 223 292 246 288 280 260 265 266 252 247 258 102 126 157 177 187 236 239 301 313 261 268 270 250 257 244 253 257 112 98 100 122 153 188 180 169
148 120 60 276 206 217 226 225 230 210 209 197 225 217 228 236 236 239 246 61 64 113 101 114 223 267 317 280 44 76 239 214 280 248 234 269 261 137 145 162 176 211 200 190 186
132 166 149 210 247 252 220 228 214 207 237 224 259 265 235 237 262 239 217 117 93 97 87 58 183 183 220 262 336 297 293 271 163 272 291 269 285 290 293 315 347 196 201 179 186
182 226 179 191 216 227 262 274 224 201 219 215 233 235 214 227 239 239 232 203 125 134 104 10 247 219 255 272 300 290 275 272 270 258 253 272 280 276 290 318 118 117 96 73 244
171 181 204 310 192 201 212 230 230 261 165 201 231 251 217 233 203 210 67 84 142 136 136 90 266 35 285 259 263 266 261 267 266 264 263 264 267 285 359 121 172 163 140 130 336
69 328 316 180 199 192 210 221 224 195 166 345 294 45 156 8 64 70 56 14 35 142 170 168 159 136 255 69 358 301 248 246 253 259 264 268 273 14 272 103 69 49 1 294 305